Lexington Weather

Lexington, Massachusetts, USA

69°F
6/18/2024 2:22am 
  • Lexington Conditions: Clear
  • Temperature: 68.7°F / 20.4°CColder 0.6°F than last hour.
  • Dew Point: 62.6°FIncreased 0.2°Fsince last hour.
  • Relative Humidity: 81%Increased 2.0% since last hour.
  • Wind: Calm, 10-min avg: Calm, gust: None
  • Barometer: 30.08 in Steady
  • Visibility: 10 miles
  • Rain Today: 0.00 in
  •   
Southeast Middlesex County, MA - Heat Advisory - Excessive Heat Watch
 - SEE ALL NEARBY ALERTS -

Regional Weather Roundup
for Boston, MA

        
000
ASUS41 KBOX 162110
RWRBOX

REGIONAL WEATHER ROUNDUP
NATIONAL WEATHER SERVICE BOSTON/NORTON MA
500 PM EDT SUN JUN 16 2024

NOTE:  "FAIR" INDICATES FEW OR NO CLOUDS BELOW 12,000 FEET WITH NO 
SIGNIFICANT WEATHER AND/OR OBSTRUCTIONS TO VISIBILITY.

MAZALL-162200-
EASTERN MASSACHUSETTS
  
CITY           SKY/WX    TMP DP  RH WIND       PRES   REMARKS
BOSTON         PTSUNNY   66  47  50 E14       30.23F                  
BEVERLY        SUNNY     66  45  46 SE12      30.22F                  
LAWRENCE       SUNNY     72  48  42 VRB6      30.22F                  
BEDFORD        SUNNY     72  47  40 S9        30.20F                  
NORWOOD        SUNNY     75  51  43 VRB5      30.21F                  
MARSHFIELD     SUNNY     68  45  42 VRB6      30.24S                  
PLYMOUTH       SUNNY     69  45  41 E6        30.23S                  
TAUNTON        MOSUNNY   74  51  44 E9        30.22R                  
NEW BEDFORD    SUNNY     72  50  45 SE9       30.23R                  
$$

MAZALL-162200-
CAPE COD AND THE ISLANDS
  
CITY           SKY/WX    TMP DP  RH WIND       PRES   REMARKS
FALMOUTH       NOT AVBL                                               
HYANNIS        SUNNY     66  49  54 VRB7      30.23S                  
CHATHAM        SUNNY     68  44  42 E7        30.25S                  
PROVINCETOWN   SUNNY     68  49  50 VRB7      30.25S                  
NANTUCKET      SUNNY     65  53  65 SE9       30.25S                  
MARTHAS VNYRD  MOSUNNY   66  53  63 S7        30.25R                  
$$
 
MAZALL-162200-
CENTRAL AND WESTERN MASSACHUSETTS
  
CITY           SKY/WX    TMP DP  RH WIND       PRES   REMARKS
WORCESTER      SUNNY     71  42  35 NW3       30.22F                  
FITCHBURG      SUNNY     75  45  34 S8        30.21F                  
ORANGE         SUNNY     73  42  32 S9        30.21F                  
SPRINGFIELD    PTSUNNY   75  41  28 SE5       30.17F                  
WESTFIELD      SUNNY     75  50  41 S6        30.19F                  
NORTH ADAMS    MOSUNNY   79  46  31 SE3       30.18F                  
PITTSFIELD     MOSUNNY   74  43  32 SW7       30.19F                  
$$
 
RIZALL-162200-
RHODE ISLAND
  
CITY           SKY/WX    TMP DP  RH WIND       PRES   REMARKS
PROVIDENCE     PTSUNNY   71  50  47 S14       30.23S                  
NEWPORT        SUNNY     66  51  58 S9        30.24S                  
BLOCK ISLAND   SUNNY     66  53  63 S13       30.25F                  
SMITHFIELD     SUNNY     72  45  37 VRB5      30.22F                  
WESTERLY       MOSUNNY   68  52  56 S9        30.24F                  
$$
 
CTZALL-162200-
CONNECTICUT
  
CITY           SKY/WX    TMP DP  RH WIND       PRES   REMARKS
BRADLEY INTL   PTSUNNY   77  47  34 S5        30.19F                  
HARTFORD       SUNNY     77  47  34 VRB6      30.19F                  
PLAINVILLE     CLEAR     76  47  34 CALM      30.20S                  
BRIDGEPORT     MOSUNNY   72  49  44 SE8       30.22F                  
DANBURY        MOSUNNY   75  49  39 VRB7      30.22S                  
GROTON         MOSUNNY   69  55  60 SE12      30.23F                  
NEW HAVEN      MOSUNNY   72  53  51 S9        30.23S                  
CHESTER        MOSUNNY   75  48  38 S8        30.23S                  
MERIDEN        SUNNY     75  47  36 S9        30.21S                  
WILLIMANTIC    SUNNY     75  51  43 S8        30.20F                  
OXFORD         SUNNY     73  51  46 VRB7      30.23S                  
$$

MEZ002-015-021-024-NHZ003-005-008-011-012-014-VTZ005-008-162200-
NORTHERN NEW ENGLAND
  
CITY           SKY/WX    TMP DP  RH WIND       PRES   REMARKS
PORTLAND ME    MOSUNNY   63  43  48 S10       30.21F                  
BANGOR ME      MOSUNNY   74  42  31 VRB6      30.16F                  
CONCORD NH     SUNNY     74  43  32 SW3       30.19F                  
MANCHESTER NH  PTSUNNY   74  41  30 CALM      30.19S                  
NASHUA NH      SUNNY     74  44  34 VRB3      30.21F                  
PORTSMOUTH NH  PTSUNNY   67  47  48 SE10      30.21S                  
JAFFREY NH     SUNNY     74  42  31 S9        30.22S                  
KEENE NH       SUNNY     73  40  30 SW6       30.19F                  
BURLINGTON VT  PTSUNNY   73  40  30 S7        30.17F                  
MT. WASHINGTON PTSUNNY   52  36  54 W15         N/A                   
$$

NYZ052-076-162200-
EASTERN NEW YORK
  
CITY           SKY/WX    TMP DP  RH WIND       PRES   REMARKS
ALBANY         PTSUNNY   76  43  30 E6        30.18F                  
NEW YORK CITY  PTSUNNY   73  53  49 S12       30.20F                  
$$
 
ANZALL-162200-
MARINE OBSERVATIONS
  
STATION/POSITION TIME  TEMP    WIND        PRES    VSBY  WAVE
                       AIR SEA DIR/SP/G                  HT/PER
                 (UTC) (F)     (DEG/KT/KT) (MB)    (MI)  (FT/S)
BOSTON BUOY      2050   62 65  140/  8/  8 1024.2F         2/ 8
BUZZARDS BAY     2000   64     200/  9/  9 1024.6R
NANTUCKET SOUND  2050   64 68  130/  8/ 10 1023.7S         1/ 3
MASS BAY-STELLWA 1904   61 63  140/  6/  8 1024.9F  1 7/8  2/ 8
ISLE OF SHOALS   2000   61     150/ 13/ 14 1023.0F
S OF BLOCK IS    2056      66                N/A           2/ 8
$$

......................KEY.........................
  SKY/WX - SKY CONDITION/PRESENT WEATHER
  TMP    - TEMPERATURE IN FAHRENHEIT
  DWPT   - DEWPOINT IN FAHRENHEIT
  RH     - RELATIVE HUMIDITY IN PERCENT
  WIND   - DIRECTION AND SPEED IN MPH
  PRES   - MEAN SEA LEVEL PRESSURE IN INCHES OF HG
  WCI    - WIND CHILL INDEX
  VSB    - VISIBILITY IN MILES
  HX     - HEAT INDEX
  TC     - TEMPERATURE IN CELSIUS
  VRB    - VARIABLE WIND DIRECTION
  N/A    - NOT AVAILABLE
  
      

Other recent Regional Weather Roundups

Tue Jun 18, 1:10am EDT

Tue Jun 18, 12:10am EDT

Mon Jun 17, 11:10pm EDT

Mon Jun 17, 10:10pm EDT

Mon Jun 17, 9:10pm EDT

Mon Jun 17, 8:10pm EDT

Mon Jun 17, 7:10pm EDT

Mon Jun 17, 6:10pm EDT

Mon Jun 17, 5:10pm EDT

Mon Jun 17, 4:10pm EDT

Mon Jun 17, 3:10pm EDT

Mon Jun 17, 2:10pm EDT

Mon Jun 17, 1:10pm EDT

Mon Jun 17, 12:10pm EDT

Mon Jun 17, 11:10am EDT

Mon Jun 17, 10:10am EDT

Mon Jun 17, 9:10am EDT

Mon Jun 17, 8:10am EDT

Mon Jun 17, 7:10am EDT

Mon Jun 17, 6:10am EDT

Mon Jun 17, 5:10am EDT

Mon Jun 17, 4:10am EDT

Mon Jun 17, 3:10am EDT

Mon Jun 17, 2:10am EDT

Mon Jun 17, 1:10am EDT

Mon Jun 17, 12:10am EDT

Sun Jun 16, 11:10pm EDT

Sun Jun 16, 10:10pm EDT

Sun Jun 16, 9:10pm EDT

Sun Jun 16, 8:10pm EDT

Sun Jun 16, 7:10pm EDT

Sun Jun 16, 6:10pm EDT

Sun Jun 16, 4:10pm EDT

Sun Jun 16, 3:10pm EDT

Sun Jun 16, 2:10pm EDT

Sun Jun 16, 1:10pm EDT

Sun Jun 16, 12:10pm EDT

Sun Jun 16, 11:10am EDT

Sun Jun 16, 10:10am EDT

Sun Jun 16, 9:10am EDT

Sun Jun 16, 8:10am EDT

Sun Jun 16, 7:10am EDT

Sun Jun 16, 6:10am EDT

Sun Jun 16, 5:10am EDT

Sun Jun 16, 4:10am EDT

Sun Jun 16, 3:10am EDT

Sun Jun 16, 2:10am EDT

Sun Jun 16, 1:10am EDT

Sun Jun 16, 12:10am EDT

Sat Jun 15, 11:10pm EDT

Sat Jun 15, 10:10pm EDT

Sat Jun 15, 9:10pm EDT

Sat Jun 15, 8:10pm EDT

Sat Jun 15, 7:10pm EDT

Sat Jun 15, 6:10pm EDT

Sat Jun 15, 5:10pm EDT

Sat Jun 15, 4:10pm EDT

Sat Jun 15, 3:10pm EDT

Sat Jun 15, 2:10pm EDT

Sat Jun 15, 1:10pm EDT

Sat Jun 15, 12:10pm EDT

Sat Jun 15, 11:10am EDT

Sat Jun 15, 10:10am EDT

Sat Jun 15, 9:10am EDT

Sat Jun 15, 8:10am EDT

Sat Jun 15, 7:10am EDT

Sat Jun 15, 6:10am EDT

Sat Jun 15, 5:10am EDT

Sat Jun 15, 4:10am EDT

Sat Jun 15, 3:10am EDT

Sat Jun 15, 2:10am EDT

Sat Jun 15, 1:10am EDT

Sat Jun 15, 12:10am EDT

Fri Jun 14, 11:10pm EDT

Fri Jun 14, 10:10pm EDT

Fri Jun 14, 9:10pm EDT

Fri Jun 14, 8:10pm EDT

Fri Jun 14, 7:10pm EDT

Fri Jun 14, 6:10pm EDT

Fri Jun 14, 5:10pm EDT

Fri Jun 14, 4:10pm EDT

Fri Jun 14, 3:10pm EDT

Fri Jun 14, 2:10pm EDT

Fri Jun 14, 1:10pm EDT

Fri Jun 14, 12:10pm EDT

Fri Jun 14, 11:10am EDT

Fri Jun 14, 10:10am EDT

Fri Jun 14, 9:10am EDT

Fri Jun 14, 8:10am EDT

Fri Jun 14, 7:10am EDT

Fri Jun 14, 6:10am EDT

Fri Jun 14, 5:10am EDT

Fri Jun 14, 4:10am EDT

Fri Jun 14, 3:10am EDT

Fri Jun 14, 2:10am EDT

Fri Jun 14, 1:10am EDT

Fri Jun 14, 12:10am EDT

Thu Jun 13, 11:10pm EDT

Thu Jun 13, 10:10pm EDT

Thu Jun 13, 9:10pm EDT

Thu Jun 13, 8:10pm EDT

Thu Jun 13, 7:10pm EDT

Thu Jun 13, 6:10pm EDT

Thu Jun 13, 5:10pm EDT

Thu Jun 13, 4:10pm EDT

Thu Jun 13, 3:10pm EDT

Thu Jun 13, 2:10pm EDT

Thu Jun 13, 1:10pm EDT

Thu Jun 13, 12:10pm EDT

Thu Jun 13, 11:10am EDT

Thu Jun 13, 10:10am EDT

Thu Jun 13, 9:10am EDT

Thu Jun 13, 8:10am EDT

Thu Jun 13, 7:10am EDT

Thu Jun 13, 6:10am EDT

Thu Jun 13, 5:10am EDT

Thu Jun 13, 4:10am EDT

Thu Jun 13, 3:10am EDT

Thu Jun 13, 2:10am EDT

Thu Jun 13, 1:10am EDT

Thu Jun 13, 12:10am EDT

Wed Jun 12, 11:10pm EDT

Wed Jun 12, 10:10pm EDT

Wed Jun 12, 9:10pm EDT

Wed Jun 12, 8:10pm EDT

Wed Jun 12, 7:10pm EDT

Wed Jun 12, 6:10pm EDT

Wed Jun 12, 5:10pm EDT

Wed Jun 12, 4:10pm EDT

Wed Jun 12, 3:10pm EDT

Wed Jun 12, 2:10pm EDT

Wed Jun 12, 1:10pm EDT

Wed Jun 12, 12:10pm EDT

Wed Jun 12, 11:10am EDT

Wed Jun 12, 10:10am EDT

Wed Jun 12, 9:10am EDT

Wed Jun 12, 8:10am EDT

Wed Jun 12, 7:10am EDT

Wed Jun 12, 6:10am EDT

Wed Jun 12, 5:10am EDT

Wed Jun 12, 4:10am EDT

Wed Jun 12, 3:10am EDT

Wed Jun 12, 2:10am EDT

Wed Jun 12, 1:10am EDT

Wed Jun 12, 12:10am EDT

Tue Jun 11, 11:10pm EDT

Tue Jun 11, 10:10pm EDT

Tue Jun 11, 9:10pm EDT

Tue Jun 11, 8:10pm EDT

Tue Jun 11, 7:10pm EDT

Tue Jun 11, 6:10pm EDT

Tue Jun 11, 5:10pm EDT

Tue Jun 11, 4:10pm EDT

Tue Jun 11, 3:10pm EDT

Tue Jun 11, 2:10pm EDT

Tue Jun 11, 1:10pm EDT

Tue Jun 11, 12:10pm EDT

Tue Jun 11, 11:10am EDT

Tue Jun 11, 10:10am EDT

Tue Jun 11, 9:10am EDT

Tue Jun 11, 8:10am EDT

Tue Jun 11, 7:10am EDT

Tue Jun 11, 6:10am EDT

Tue Jun 11, 5:10am EDT

Tue Jun 11, 4:10am EDT

Tue Jun 11, 3:10am EDT

Tue Jun 11, 2:10am EDT